Location: Acton
(51.4942°N, 0.2232°W)
Time: 19:36:11
(UTC+00:00)

Cosmos 494 Rocket - Visible Passes

Search period start: 26 January 2021 00:00
Search period end: 05 February 2021 00:00
Orbit: 743 x 770 km, 74.1° (Epoch: 26 January)

Date Brightness Start Highest point End Pass type
(mag) Time Alt. Az. Time Alt. Az. Time Alt. Az.
26 Jan 5.0 18:14:55 10° N 18:19:11 25° NE 18:20:12 24° ENE visible
26 Jan 4.7 19:56:20 10° NNW 20:00:15 49° NW 20:00:15 49° NW visible
27 Jan 5.4 17:34:46 10° N 17:38:13 18° NE 17:41:11 12° E visible
27 Jan 3.8 19:15:45 10° NNW 19:20:56 76° ENE 19:21:16 73° ESE visible
27 Jan 6.4 20:58:39 10° NW 21:01:20 18° W 21:01:20 18° W visible
28 Jan 4.2 18:35:18 10° NNW 18:40:17 47° ENE 18:42:29 30° ESE visible
28 Jan 5.6 20:17:26 10° NW 20:21:55 31° WSW 20:22:35 30° WSW visible
29 Jan 4.7 17:54:57 10° N 17:59:31 31° NE 18:04:02 10° ESE visible
29 Jan 4.7 19:36:35 10° NNW 19:41:34 51° WSW 19:44:10 27° S visible
30 Jan 5.2 17:14:43 10° N 17:18:36 21° NE 17:22:29 10° E visible
30 Jan 3.9 18:55:55 10° NNW 19:01:06 85° WSW 19:06:19 10° SSE visible
30 Jan 6.7 20:39:25 10° WNW 20:42:07 14° W 20:44:49 10° SW visible
31 Jan 4.0 18:15:24 10° NNW 18:20:31 59° ENE 18:25:39 10° SE visible
31 Jan 6.1 19:57:51 10° NW 20:01:57 24° W 20:06:03 10° SSW visible
01 Feb 4.5 17:35:00 10° NNW 17:39:48 37° NE 17:44:37 10° ESE visible
01 Feb 5.3 19:16:51 10° NW 19:21:40 40° WSW 19:26:29 10° S visible
02 Feb 4.3 18:36:07 10° NNW 18:41:16 68° WSW 18:46:24 10° SSE visible
02 Feb 7.1 20:20:48 10° WNW 20:22:04 11° W 20:23:20 10° WSW visible
03 Feb 3.9 17:55:32 10° NNW 18:00:44 75° ENE 18:05:56 10° SSE visible
03 Feb 6.6 19:38:23 10° NW 19:41:58 19° W 19:45:32 10° SW visible
04 Feb 7.3 06:58:19 10° ESE 07:00:07 12° E 07:01:55 10° ENE visible
04 Feb 5.8 18:57:11 10° NW 19:01:44 32° WSW 19:06:16 10° SSW visible
